Location: Holmes Observatory
(37.1039°N, 122.0513°W)
Time: 00:29:07
(UTC-07:00)

Daily predictions for brighter satellites

Satellite Brightness Start Highest point End
(mag) Time Altitude Azimuth Time Altitude Azimuth Time Altitude Azimuth
SJ 16-02 4.1 04:29:11 14° NE 04:29:11 14° NE 04:29:55 10° NE
CZ-3 R/B 4.3 04:29:27 47° WSW 04:37:41 56° SSW 04:49:35 10° SE
USA 215 4.4 04:33:10 10° NNE 04:37:22 32° N 04:37:22 32° N
Cosmos 2227 Rocket 4.5 04:35:28 10° N 04:39:39 20° NE 04:43:46 10° ESE
ADEOS II 3.9 04:38:48 10° NNE 04:40:45 23° NNE 04:40:45 23° NNE
NOSS 3-1 (C) 4.3 04:56:39 37° N 04:56:39 37° N 05:00:54 10° NNE
Cosmos 962 Rocket 4.3 04:55:25 10° N 05:01:35 86° E 05:07:41 10° S
NOSS 3-1 (A) 3.7 05:04:08 52° NNW 05:04:08 52° NNW 05:09:23 10° NNE
USA 267 3.3 05:01:41 10° SE 05:08:11 73° NE 05:10:53 38° NNW
Cosmos 2219 3.0 05:13:28 78° SW 05:13:28 78° SW 05:18:51 10° SSE
Cosmos 2297 Rocket 3.8 05:11:48 10° N 05:16:52 33° ENE 05:21:54 10° ESE
Meteor PRIRODA 4.3 05:20:19 10° NNE 05:24:00 56° E 05:24:29 51° SE
Cosmos 1295 Rocket 4.4 05:18:08 10° N 05:24:26 72° W 05:30:44 10° S
Cosmos 372 Rocket 4.4 05:25:56 45° NNW 05:25:56 45° NNW 05:29:58 10° N
Cosmos 2084 Rocket 3.4 05:26:50 74° NNE 05:26:50 74° NNE 05:30:36 10° NNE
Cosmos 2181 Rocket 3.8 05:23:39 33° SSW 05:26:31 65° W 05:32:38 10° N
Cosmos 2341 Rocket 4.0 05:24:20 10° NNW 05:30:34 57° W 05:36:46 10° SSW
NOSS 2-3 (C) 4.1 05:30:28 28° S 05:32:47 63° ESE 05:37:54 10° NE
Okean O Rocket 1.9 05:30:05 10° N 05:33:36 50° NNW 05:33:36 50° NNW
Milstar 3 3.7 05:35:11 27° SW 05:36:55 30° SSW 05:43:10 10° SE
USA 81 3.9 05:34:31 10° SSW 05:39:45 68° W 05:45:02 10° N
CZ-4B DEB 4.1 05:35:08 10° N 05:40:36 67° WNW 05:46:05 10° SSW
Meteor 1-16 Rocket 4.4 05:37:01 10° NNW 05:42:32 49° W 05:48:10 10° SSW
PAYLOAD B 4.2 05:40:43 10° N 05:46:06 57° WNW 05:51:30 10° SSW
CZ-4B R/B 3.1 05:41:18 10° N 05:46:46 65° WNW 05:52:17 10° SSW
Cosmos 1269 Rocket 4.0 05:43:24 21° NNW 05:46:52 59° WSW 05:52:03 10° S
Cosmos 2369 3.6 05:46:02 10° SSW 05:51:41 85° WNW 05:57:21 10° NNE
Cosmos 494 Rocket 4.4 05:50:56 10° NNW 05:56:05 65° ENE 06:01:16 10° SSE
Meteor 2-5 Rocket 4.5 05:56:43 30° W 05:57:21 31° WNW 06:02:28 10° NNW
Okean-O 3.5 05:53:08 10° NNE 05:57:28 52° E 06:01:47 10° S
Cosmos 1842 Rocket 3.4 05:54:05 10° NNW 05:58:25 69° W 06:02:42 10° S
Cosmos 1726 4.3 05:57:50 10° NNE 06:01:01 27° ENE 06:04:11 10° SE
Cosmos 1674 2.6 05:57:26 10° S 06:01:08 85° E 06:04:53 10° N
Meteor 2-1 Rocket 4.2 05:57:08 10° NNW 06:03:01 75° W 06:08:45 10° S
SJ 16-02 3.1 06:06:15 16° NW 06:06:15 16° NW 06:07:49 10° NNW
Cosmos 2366 rocket 4.0 06:02:49 10° NNW 06:08:52 60° W 06:14:56 10° S
Cosmos 1076 Rocket 4.3 06:06:46 10° S 06:11:01 56° E 06:15:15 10° NNE
Meteor 2-8 Rocket 4.4 06:05:43 10° SSW 06:11:48 69° W 06:17:55 10° N
Cosmos 2278 3.7 06:08:35 10° SW 06:14:07 56° WNW 06:19:42 10° NNE
NOSS 2-3 (D) 3.9 06:11:44 16° SW 06:15:22 55° NW 06:20:34 10° NNE
DELTA 2 R/B(2) 3.3 06:15:44 53° W 06:16:08 81° SSW 06:19:07 10° ESE
USA 116 3.8 06:17:41 10° S 06:21:17 52° W 06:25:24 10° NNW
NOAA 6 4.0 06:16:20 10° NNE 06:21:32 86° WNW 06:26:39 10° SSW
ORS 1 (USA 231) 4.2 06:20:42 29° WNW 06:21:59 89° S 06:24:52 10° ESE
ADEOS II 4.1 06:21:19 10° NW 06:21:41 11° NW 06:21:41 11° NW
Cosmos 2227 Rocket 2.3 06:18:30 10° NNW 06:24:02 55° WSW 06:29:32 10° S
IDEFIX/ARIANE 42P 3.2 06:21:09 10° NNE 06:26:19 61° E 06:31:27 10° S
SKYMED 2 3.5 06:28:28 10° S 06:32:48 82° WSW 06:37:10 10° NNW
Okean 3 Rocket 3.6 06:30:26 10° SSW 06:34:50 63° W 06:39:14 10° N
Cosmos 1766 Rocket 4.1 06:30:50 10° S 06:35:07 63° E 06:39:27 10° NNE
SL-14 R/B 3.5 06:35:22 10° S 06:39:14 73° E 06:43:05 10° NNE
Cosmos 1818 3.6 06:35:33 10° SW 06:40:54 63° WNW 06:46:19 10° NNE
Cosmos 1656 4.2 06:36:01 10° SW 06:41:19 39° WNW 06:46:38 10° N
ATLAS 2AS CENTAUR R/B 3.0 06:34:02 10° SW 06:41:39 75° WNW 06:49:49 10° NNE
GP-B 3.6 06:37:22 10° SSE 06:41:45 64° E 06:46:09 10° N
Cosmos 2251 Rocket 3.6 06:36:53 10° NNW 06:42:13 65° WSW 06:47:30 10° S
Meteor 1-31 Rocket 4.3 06:41:30 10° NNW 06:43:50 16° WNW 06:46:11 10° WSW
Cosmos 1821 Rocket 4.2 06:37:55 10° N 06:44:21 84° E 06:50:44 10° S
Cosmos 2360 4.5 06:39:31 10° SSW 06:45:11 76° ESE 06:50:54 10° NNE
KORONAS-FOTON 4.3 06:42:09 10° SW 06:45:37 35° W 06:49:08 10° NNW
USA 267 4.2 06:46:07 10° S 06:51:29 27° SW 06:56:53 10° WNW
Cosmos 1908 4.3 06:51:52 10° NW 06:54:55 23° W 06:57:55 10° SW
Ariane Rocket 4.5 06:53:24 10° NNE 06:58:15 44° E 07:03:03 10° S
Cosmos 2297 Rocket 3.0 06:55:54 10° NW 07:00:49 31° WSW 07:05:41 10° SSW
